| time (UTC) | temp F | wind direction | speed MPH | gust MPH | rain 1hr in | rain 24hr in | rain mn in | humidity % | barometer mb |
| 20260505063202 | 61 | 350 | 3.0 | 0.0 | 0.00 | 0.00 | 0.00 | 72 | 1009.0 |
| 20260505061805 | 59 | 10 | 5.0 | 0.0 | 0.00 | 0.00 | 0.00 | 72 | |
| 20260505060203 | 59 | 10 | 3.0 | 0.0 | 0.00 | 0.00 | 0.00 | 72 | 1009.0 |
| 20260505053202 | 57 | 310 | 7.0 | 0.0 | 0.00 | 0.00 | 0.00 | 76 | 1009.0 |
| 20260505051802 | 57 | 280 | 5.0 | 0.0 | 0.00 | 0.00 | 0.00 | 82 | |
| 20260505050202 | 57 | 290 | 6.0 | 0.0 | 0.00 | 0.00 | 0.00 | 82 | 1009.0 |
| 20260505040203 | 52 | 280 | 3.0 | 0.0 | 0.00 | 0.00 | 0.00 | 93 | 1009.0 |
| 20260505033202 | 55 | 0 | 0.0 | 0.0 | 0.00 | 0.00 | 0.00 | 82 | 1009.0 |
| 20260505031801 | 54 | 0 | 2.0 | 0.0 | 0.00 | 0.00 | 0.00 | 87 | |
| 20260505030204 | 55 | 0 | 2.0 | 0.0 | 0.00 | 0.00 | 0.00 | 82 | 1009.0 |
| 20260505023203 | 55 | 320 | 6.0 | 0.0 | 0.00 | 0.00 | 0.00 | 82 | 1009.0 |
| 20260505021801 | 55 | 320 | 5.0 | 0.0 | 0.00 | 0.00 | 0.00 | 82 | |
| 20260505020203 | 55 | 310 | 2.0 | 0.0 | 0.00 | 0.00 | 0.00 | 87 | 1009.0 |
| 20260505013203 | 55 | 0 | 1.0 | 0.0 | 0.00 | 0.00 | 0.00 | 87 | 1009.0 |
| 20260505011805 | 55 | 320 | 5.0 | 0.0 | 0.00 | 0.00 | 0.00 | 82 | |
| 20260505010203 | 55 | 330 | 3.0 | 0.0 | 0.00 | 0.00 | 0.00 | 87 | 1010.0 |
| 20260505003203 | 57 | 350 | 3.0 | 0.0 | 0.00 | 0.00 | 0.00 | 82 | 1010.0 |
| 20260505001802 | 57 | 50 | 5.0 | 0.0 | 0.00 | 0.00 | 0.00 | 76 | |
| 20260505000204 | 57 | 70 | 5.0 | 0.0 | 0.00 | 0.00 | 0.00 | 82 | 1010.0 |
| 20260504233203 | 57 | 110 | 8.0 | 0.0 | 0.00 | 0.00 | 0.00 | 82 | 1011.0 |
| 20260504231805 | 61 | 120 | 12.0 | 0.0 | 0.00 | 0.00 | 0.00 | 67 | |
| 20260504230202 | 59 | 120 | 10.0 | 0.0 | 0.00 | 0.00 | 0.00 | 77 | 1011.0 |
| 20260504224402 | 59 | 130 | 15.0 | 0.0 | 0.00 | 0.00 | 0.00 | 82 | 1011.0 |
| 20260504223202 | 59 | 130 | 18.0 | 0.0 | 0.00 | 0.00 | 0.00 | 77 | 1012.0 |
| 20260504221809 | 59 | 250 | 5.0 | 0.0 | 0.00 | 0.00 | 0.00 | 67 | |
| 20260504221802 | 61 | 160 | 9.0 | 0.0 | 0.00 | 0.00 | 0.00 | 72 | 1012.0 |
| 20260504220409 | 59 | 210 | 5.0 | 0.0 | 0.00 | 0.00 | 0.00 | 67 | 1012.0 |
| 20260504220201 | 59 | 230 | 3.0 | 0.0 | 0.00 | 0.00 | 0.00 | 67 | 1012.0 |
| 20260504213203 | 59 | 0 | 2.0 | 0.0 | 0.00 | 0.00 | 0.00 | 62 | 1012.0 |
| 20260504211801 | 61 | 10 | 5.0 | 0.0 | 0.00 | 0.00 | 0.00 | 55 | |
| 20260504210204 | 61 | 20 | 5.0 | 0.0 | 0.00 | 0.00 | 0.00 | 59 | 1012.0 |
| 20260504203202 | 61 | 360 | 2.0 | 0.0 | 0.00 | 0.00 | 0.00 | 55 | 1012.0 |
| 20260504201800 | 63 | 100 | 2.0 | 0.0 | 0.00 | 0.00 | 0.00 | 51 | |
| 20260504200202 | 63 | 100 | 6.0 | 0.0 | 0.00 | 0.00 | 0.00 | 51 | 1012.0 |
| 20260504193203 | 64 | 80 | 7.0 | 0.0 | 0.00 | 0.00 | 0.00 | 48 | 1012.0 |
| 20260504191804 | 66 | 70 | 7.0 | 0.0 | 0.00 | 0.00 | 0.00 | 45 | |
| 20260504190203 | 64 | 80 | 6.0 | 0.0 | 0.00 | 0.00 | 0.00 | 52 | 1011.0 |
| 20260504183203 | 64 | 80 | 7.0 | 0.0 | 0.00 | 0.00 | 0.00 | 55 | 1011.0 |
| 20260504181806 | 68 | 80 | 7.0 | 0.0 | 0.00 | 0.00 | 0.00 | 42 | |
| 20260504180202 | 68 | 80 | 5.0 | 0.0 | 0.00 | 0.00 | 0.00 | 45 | 1011.0 |
| 20260504173202 | 68 | 70 | 5.0 | 0.0 | 0.00 | 0.00 | 0.00 | 45 | 1011.0 |
| 20260504171806 | 70 | 70 | 7.0 | 0.0 | 0.00 | 0.00 | 0.00 | 43 | |
| 20260504170203 | 70 | 60 | 6.0 | 0.0 | 0.00 | 0.00 | 0.00 | 43 | 1011.0 |
| 20260504160202 | 72 | 40 | 6.0 | 0.0 | 0.00 | 0.00 | 0.00 | 40 | 1012.0 |
| 20260504150202 | 72 | 30 | 5.0 | 0.0 | 0.00 | 0.00 | 0.00 | 40 | 1012.0 |
| 20260504140203 | 73 | 70 | 3.0 | 0.0 | 0.00 | 0.00 | 0.00 | 35 | 1013.0 |
| 20260504130203 | 72 | 0 | 3.0 | 0.0 | 0.00 | 0.00 | 0.00 | 40 | 1013.0 |
| 20260504120202 | 70 | 0 | 5.0 | 0.0 | 0.00 | 0.00 | 0.00 | 43 | 1014.0 |
| 20260504110203 | 66 | 20 | 6.0 | 0.0 | 0.00 | 0.00 | 0.00 | 45 | 1014.0 |
| 20260504100203 | 66 | 330 | 8.0 | 0.0 | 0.00 | 0.00 | 0.00 | 45 | 1015.0 |
| 20260504081801 | 61 | 360 | 5.0 | 0.0 | 0.00 | 0.00 | 0.00 | 51 | |
| 20260504080203 | 61 | 350 | 5.0 | 0.0 | 0.00 | 0.00 | 0.00 | 55 | 1014.0 |
| 20260504070202 | 57 | 350 | 8.0 | 0.0 | 0.00 | 0.00 | 0.00 | 58 | 1014.0 |